FW1340 Weather Reports


time (UTC)temp
C
wind
direction
speed
KPH
gust
KPH
rain 1hr
cm
rain 24hr
cm
rain mn
cm
humidity
%
barometer
mb
20260505040009 13 257 0.0 0.0 0.00 0.00 0.00 81 1015.4
20260505034508 13 284 0.0 0.0 0.00 0.00 0.00 78 1015.2
20260505033005 13 291 0.0 0.0 0.00 0.00 0.00 73 1015.1
20260505031505 13 256 0.0 0.0 0.00 0.00 0.00 72 1015.1
20260505030004 14 273 0.0 0.0 0.00 0.00 0.00 72 1014.7
20260505024504 14 271 0.0 0.0 0.00 0.00 0.00 71 1014.5
20260505023003 15 306 0.0 0.0 0.00 0.00 0.00 68 1014.6
20260505021504 15 272 0.0 0.0 0.00 0.00 0.00 68 1014.7
20260505020003 16 290 0.0 0.0 0.00 0.00 0.00 72 1014.5
20260505014501 16 209 0.0 0.0 0.00 0.00 0.00 74 1014.5
20260505013001 16 157 0.0 0.0 0.00 0.00 0.00 73 1014.5
20260505011607 16 80 0.0 0.0 0.00 0.00 0.00 72 1014.6
20260505011501 16 59 0.0 0.0 0.00 0.00 0.00 72 1014.7
20260505010100 16 63 0.0 0.0 0.00 0.00 0.00 71 1014.7
20260505004559 16 89 0.0 0.0 0.00 0.00 0.00 70 1014.8
20260505003100 16 77 0.0 0.0 0.00 0.00 0.00 69 1014.7
20260505001628 17 40 0.0 0.0 0.00 0.00 0.00 63 1014.8
20260505000157 17 324 0.0 0.0 0.00 0.00 0.00 62 1014.8
20260504234612 17 274 0.0 0.0 0.00 0.00 0.00 62 1014.7
20260504233105 17 317 0.0 0.0 0.00 0.00 0.00 63 1014.8
20260504231554 17 313 0.0 0.0 0.00 0.00 0.00 62 1014.9
20260504230054 17 319 0.0 0.0 0.00 0.00 0.00 63 1014.9
20260504224608 17 315 0.0 0.0 0.00 0.00 0.00 63 1015.0
20260504223053 17 321 0.0 0.0 0.00 0.00 0.00 63 1015.1
20260504221552 17 348 0.0 0.0 0.00 0.00 0.00 64 1015.1
20260504220051 17 256 0.0 0.0 0.00 0.00 0.00 64 1015.2
20260504214551 17 254 0.0 0.0 0.00 0.00 0.00 61 1015.3
20260504213121 17 274 0.0 0.0 0.00 0.00 0.00 61 1015.3
20260504211548 17 348 0.0 0.0 0.00 0.00 0.00 62 1015.5
20260504210048 17 332 0.0 0.0 0.00 0.00 0.00 63 1015.4
20260504204552 17 246 0.0 0.0 0.00 0.00 0.00 65 1015.5
20260504203057 17 258 0.0 0.0 0.00 0.00 0.00 64 1015.5
20260504201542 16 242 0.0 0.0 0.00 0.00 0.00 69 1015.4
20260504200041 16 263 0.0 0.0 0.00 0.00 0.00 70 1015.4
20260504194547 16 326 0.0 0.0 0.00 0.00 0.00 75 1015.4
20260504193040 15 276 0.0 0.0 0.00 0.00 0.00 79 1015.7
20260504191532 15 199 0.0 0.0 0.00 0.00 0.00 80 1015.7
20260504190027 15 182 0.0 0.0 0.00 0.00 0.00 80 1015.8
20260504184526 15 115 0.0 0.0 0.00 0.00 0.00 80 1015.8
20260504183027 15 119 0.0 0.0 0.00 0.00 0.00 80 1015.7
20260504181524 15 181 0.0 0.0 0.00 0.00 0.00 78 1015.8
20260504180020 15 106 0.0 0.0 0.00 0.00 0.00 75 1015.9
20260504174518 15 138 0.0 0.0 0.00 0.00 0.00 74 1015.8
20260504173030 15 180 0.0 0.0 0.00 0.00 0.00 74 1015.7
20260504171521 14 230 0.0 0.0 0.00 0.00 0.00 75 1015.7
20260504081524 12 261 0.0 0.0 0.00 0.00 0.00 84 1014.6
20260504050004 13 265 0.0 0.0 0.00 0.00 0.00 75 1013.9
20260504044504 13 296 0.0 0.0 0.00 0.00 0.00 73 1013.9
20260504043004 14 278 0.0 0.0 0.00 0.00 0.00 72 1013.7
20260504041559 14 275 0.0 0.0 0.00 0.00 0.00 71 1013.6